�������l�o���
Date,Time,MP-1(��Sv/h),MP-2(��Sv/h),MP-3(��Sv/h),MP-4(��Sv/h),MP-5(��Sv/h),MP-6(��Sv/h),MP-7(��Sv/h),MP-8(��Sv/h),����,����(m/s),���J
2022/10/07,00:00,0.559,0.806,0.519,1.022,0.714,0.331,0.581,0.551,�k��,4.9,��
2022/10/07,00:10,0.560,0.807,0.518,1.022,0.713,0.331,0.581,0.551,�k��,4.3,��
2022/10/07,00:20,0.560,0.806,0.519,1.023,0.713,0.330,0.581,0.549,�k��,4.4,��
2022/10/07,00:30,0.561,0.807,0.519,1.023,0.712,0.331,0.582,0.549,�k��,4.8,��
2022/10/07,00:40,0.560,0.806,0.518,1.021,0.714,0.330,0.582,0.550,�k��,4.8,��
2022/10/07,00:50,0.559,0.806,0.519,1.023,0.713,0.331,0.582,0.550,�k�k��,5.2,��
2022/10/07,01:00,0.561,0.807,0.518,1.022,0.714,0.330,0.582,0.550,�k��,5.3,��
2022/10/07,01:10,0.559,0.805,0.520,1.023,0.714,0.330,0.583,0.550,�k��,4.9,��
2022/10/07,01:20,0.561,0.807,0.519,1.023,0.711,0.330,0.582,0.550,�k�k��,4.2,��
2022/10/07,01:30,0.560,0.807,0.517,1.022,0.714,0.332,0.582,0.548,�k��,4.4,��
2022/10/07,01:40,0.559,0.807,0.519,1.022,0.712,0.331,0.582,0.549,�k��,4.6,��
2022/10/07,01:50,0.559,0.806,0.519,1.026,0.713,0.330,0.582,0.550,�k��,4.3,��
2022/10/07,02:00,0.561,0.807,0.519,1.023,0.715,0.331,0.582,0.550,�k��,4.5,��
2022/10/07,02:10,0.560,0.806,0.520,1.024,0.713,0.330,0.582,0.550,�k��,5.0,��
2022/10/07,02:20,0.561,0.806,0.518,1.022,0.714,0.332,0.582,0.549,�k��,5.6,��
2022/10/07,02:30,0.560,0.806,0.519,1.022,0.712,0.331,0.583,0.549,�k��,5.8,��
2022/10/07,02:40,0.560,0.805,0.520,1.024,0.713,0.332,0.583,0.550,�k��,5.7,��
2022/10/07,02:50,0.560,0.808,0.520,1.022,0.714,0.331,0.581,0.550,�k��,6.1,��
2022/10/07,03:00,0.560,0.807,0.519,1.026,0.713,0.330,0.582,0.549,�k��,6.4,��
2022/10/07,03:10,0.561,0.808,0.520,1.021,0.713,0.331,0.584,0.549,�k�k��,6.7,��
2022/10/07,03:20,0.560,0.809,0.520,1.034,0.712,0.331,0.584,0.551,�k�k��,6.7,��
2022/10/07,03:30,0.560,0.807,0.518,1.024,0.714,0.331,0.584,0.552,�k�k��,7.3,��
2022/10/07,03:40,0.559,0.808,0.518,1.024,0.714,0.330,0.583,0.551,�k�k��,7.0,��
2022/10/07,03:50,0.560,0.808,0.520,1.025,0.713,0.332,0.582,0.551,�k�k��,6.3,��
2022/10/07,04:00,0.561,0.810,0.520,1.022,0.715,0.331,0.582,0.551,�k�k��,6.2,��
2022/10/07,04:10,0.560,0.809,0.521,1.023,0.714,0.331,0.583,0.551,�k��,6.7,��
2022/10/07,04:20,0.560,0.808,0.521,1.022,0.714,0.331,0.582,0.549,�k�k��,6.0,��
2022/10/07,04:30,0.561,0.809,0.520,1.024,0.713,0.331,0.582,0.551,�k�k��,6.7,��
2022/10/07,04:40,0.560,0.809,0.520,1.023,0.714,0.331,0.583,0.552,�k�k��,6.7,��
2022/10/07,04:50,0.562,0.807,0.519,1.025,0.713,0.331,0.582,0.551,�k�k��,6.7,��
2022/10/07,05:00,0.561,0.808,0.520,1.023,0.715,0.333,0.583,0.552,�k�k��,7.3,��
2022/10/07,05:10,0.561,0.808,0.520,1.024,0.716,0.331,0.583,0.552,�k�k��,6.4,��
2022/10/07,05:20,0.560,0.808,0.521,1.025,0.715,0.331,0.583,0.552,�k�k��,7.2,��
2022/10/07,05:30,0.562,0.808,0.518,1.022,0.715,0.331,0.583,0.553,�k�k��,7.4,��
2022/10/07,05:40,0.560,0.808,0.520,1.025,0.714,0.330,0.583,0.552,�k�k��,7.1,��
2022/10/07,05:50,0.561,0.811,0.518,1.024,0.714,0.331,0.584,0.552,�k��,6.5,��
2022/10/07,06:00,0.561,0.811,0.521,1.024,0.716,0.331,0.582,0.551,�k��,6.2,��
2022/10/07,06:10,0.562,0.810,0.519,1.023,0.713,0.332,0.581,0.550,�k��,5.7,��
2022/10/07,06:20,0.563,0.809,0.520,1.023,0.713,0.331,0.583,0.551,�k��,6.5,��
2022/10/07,06:30,0.561,0.809,0.521,1.022,0.714,0.333,0.582,0.551,�k��,7.3,��
2022/10/07,06:40,0.561,0.808,0.520,1.024,0.715,0.331,0.583,0.551,�k��,6.9,��
2022/10/07,06:50,0.562,0.808,0.519,1.023,0.716,0.331,0.583,0.554,�k��,6.2,��
2022/10/07,07:00,0.562,0.810,0.521,1.024,0.715,0.334,0.584,0.552,�k��,5.6,��
2022/10/07,07:10,0.562,0.809,0.519,1.025,0.715,0.331,0.583,0.553,�k��,5.2,��
2022/10/07,07:20,0.562,0.808,0.522,1.025,0.716,0.331,0.582,0.553,�k��,4.7,��
2022/10/07,07:30,0.562,0.810,0.522,1.024,0.715,0.331,0.583,0.553,�k�k��,5.1,��
2022/10/07,07:40,0.562,0.809,0.523,1.024,0.717,0.330,0.582,0.552,�k�k��,6.1,��
2022/10/07,07:50,0.563,0.808,0.521,1.024,0.717,0.331,0.582,0.552,�k�k��,6.8,��
2022/10/07,08:00,0.565,0.809,0.522,1.024,0.718,0.332,0.583,0.552,�k�k��,7.4,��
2022/10/07,08:10,0.562,0.810,0.521,1.025,0.716,0.333,0.583,0.553,�k�k��,7.7,��
2022/10/07,08:20,0.563,0.809,0.522,1.026,0.717,0.332,0.581,0.554,�k�k��,7.5,��
2022/10/07,08:30,0.565,0.808,0.522,1.024,0.716,0.332,0.582,0.553,�k�k��,7.0,��
2022/10/07,08:40,0.563,0.809,0.522,1.026,0.717,0.331,0.583,0.553,�k��,5.7,��
2022/10/07,08:50,0.564,0.807,0.520,1.025,0.717,0.332,0.582,0.554,�k��,4.7,��
2022/10/07,09:00,0.563,0.808,0.521,1.027,0.718,0.331,0.581,0.552,�k��,4.9,��
2022/10/07,09:10,0.564,0.808,0.523,1.024,0.718,0.333,0.581,0.553,�k��,4.7,��
2022/10/07,09:20,0.565,0.809,0.523,1.026,0.717,0.332,0.582,0.553,�k��,4.8,��
2022/10/07,09:30,0.564,0.809,0.522,1.027,0.717,0.332,0.583,0.553,�k�k��,5.6,��
2022/10/07,09:40,0.565,0.812,0.523,1.027,0.717,0.332,0.583,0.554,�k�k��,5.3,��
2022/10/07,09:50,0.565,0.807,0.522,1.026,0.719,0.334,0.582,0.553,�k�k��,5.4,�L
2022/10/07,10:00,0.564,0.811,0.521,1.026,0.718,0.333,0.583,0.553,�k�k��,5.2,�L
2022/10/07,10:10,0.565,0.810,0.521,1.027,0.720,0.332,0.582,0.553,�k�k��,4.5,�L
2022/10/07,10:20,0.567,0.811,0.524,1.028,0.720,0.332,0.583,0.554,�k�k��,6.0,�L
2022/10/07,10:30,0.567,0.811,0.522,1.026,0.719,0.334,0.582,0.554,�k�k��,4.6,�L
2022/10/07,10:40,0.566,0.810,0.524,1.029,0.719,0.333,0.582,0.554,�k,4.4,�L
2022/10/07,10:50,0.569,0.811,0.525,1.029,0.719,0.335,0.583,0.555,�k�k��,4.9,�L
2022/10/07,11:00,0.568,0.811,0.526,1.030,0.722,0.337,0.583,0.554,�k�k��,4.6,�L
2022/10/07,11:10,0.569,0.811,0.527,1.030,0.721,0.337,0.583,0.554,�k,5.5,�L
2022/10/07,11:20,0.569,0.811,0.526,1.031,0.720,0.337,0.584,0.555,�k,3.9,�L
2022/10/07,11:30,0.569,0.811,0.525,1.029,0.720,0.339,0.582,0.553,�k,4.6,�L
2022/10/07,11:40,0.570,0.811,0.527,1.029,0.719,0.338,0.582,0.554,�k�k��,5.2,�L
2022/10/07,11:50,0.570,0.807,0.527,1.027,0.720,0.339,0.582,0.551,�k,6.5,�L
2022/10/07,12:00,0.570,0.807,0.527,1.029,0.717,0.339,0.583,0.550,�k�k��,5.9,�L
2022/10/07,12:10,0.569,0.806,0.527,1.027,0.715,0.338,0.581,0.551,�k�k��,6.2,�L
2022/10/07,12:20,0.569,0.806,0.527,1.024,0.715,0.340,0.581,0.551,�k�k��,6.2,�L
2022/10/07,12:30,0.567,0.805,0.527,1.025,0.715,0.340,0.581,0.552,�k�k��,5.8,�L
2022/10/07,12:40,0.568,0.805,0.526,1.023,0.714,0.340,0.580,0.550,�k�k��,6.4,�L
2022/10/07,12:50,0.567,0.803,0.525,1.021,0.712,0.341,0.579,0.551,�k�k��,7.0,�L
2022/10/07,13:00,0.565,0.802,0.525,1.020,0.712,0.339,0.579,0.550,�k�k��,7.3,�L
2022/10/07,13:10,0.566,0.799,0.524,1.018,0.711,0.338,0.580,0.549,�k�k��,6.3,�L
2022/10/07,13:20,0.564,0.797,0.524,1.015,0.708,0.338,0.577,0.549,�k�k��,7.4,�L
2022/10/07,13:30,0.564,0.796,0.523,1.016,0.709,0.337,0.578,0.550,�k�k��,8.2,�L
2022/10/07,13:40,0.562,0.793,0.522,1.013,0.705,0.337,0.576,0.548,�k�k��,6.6,�L
2022/10/07,13:50,0.561,0.792,0.520,1.008,0.704,0.337,0.576,0.547,�k,7.0,�L
2022/10/07,14:00,0.559,0.793,0.523,1.004,0.702,0.336,0.576,0.546,�k�k��,6.9,�L
2022/10/07,14:10,0.558,0.789,0.520,1.001,0.700,0.336,0.574,0.545,�k,7.0,�L
2022/10/07,14:20,0.556,0.787,0.518,1.000,0.698,0.336,0.574,0.545,�k,7.4,�L
2022/10/07,14:30,0.557,0.787,0.520,0.995,0.699,0.336,0.573,0.545,�k�k��,7.1,�L
2022/10/07,14:40,0.556,0.785,0.518,0.993,0.696,0.335,0.572,0.543,�k�k��,8.1,�L
2022/10/07,14:50,0.556,0.786,0.518,0.993,0.696,0.335,0.573,0.544,�k�k��,8.4,�L
2022/10/07,15:00,0.555,0.788,0.519,0.991,0.695,0.334,0.573,0.545,�k�k��,7.6,�L
2022/10/07,15:10,0.557,0.785,0.519,0.991,0.696,0.335,0.575,0.543,�k�k��,7.3,�L
2022/10/07,15:20,0.557,0.787,0.520,0.991,0.698,0.337,0.572,0.542,�k�k��,6.5,�L
2022/10/07,15:30,0.557,0.787,0.519,0.987,0.694,0.338,0.571,0.545,�k�k��,7.0,�L
2022/10/07,15:40,0.555,0.785,0.518,0.986,0.691,0.336,0.572,0.543,�k�k��,5.0,�L
2022/10/07,15:50,0.556,0.785,0.519,0.987,0.693,0.335,0.570,0.544,�k�k��,6.3,�L
2022/10/07,16:00,0.556,0.787,0.520,0.984,0.692,0.336,0.571,0.542,�k�k��,7.4,�L
2022/10/07,16:10,0.557,0.785,0.519,0.985,0.691,0.337,0.570,0.542,�k�k��,7.4,�L
2022/10/07,16:20,0.560,0.786,0.520,0.983,0.690,0.337,0.571,0.541,�k�k��,7.3,�L
2022/10/07,16:30,0.557,0.787,0.520,0.981,0.690,0.338,0.571,0.542,�k�k��,8.0,�L
2022/10/07,16:40,0.557,0.787,0.520,0.980,0.688,0.338,0.569,0.542,�k�k��,7.9,�L
2022/10/07,16:50,0.557,0.785,0.519,0.979,0.686,0.338,0.570,0.541,�k�k��,6.8,�L
2022/10/07,17:00,0.557,0.786,0.520,0.977,0.687,0.339,0.569,0.541,�k,8.5,�L
2022/10/07,17:10,0.555,0.785,0.517,0.979,0.685,0.339,0.568,0.542,�k�k��,6.4,�L
2022/10/07,17:20,0.554,0.783,0.517,0.976,0.682,0.338,0.570,0.542,�k�k��,7.3,�L
2022/10/07,17:30,0.552,0.780,0.516,0.971,0.680,0.335,0.567,0.539,�k,4.4,�L
2022/10/07,17:40,0.551,0.779,0.515,0.970,0.676,0.335,0.568,0.539,�k�k��,7.6,�L
2022/10/07,17:50,0.551,0.776,0.516,0.965,0.673,0.336,0.567,0.539,�k�k��,6.0,�L
2022/10/07,18:00,0.549,0.772,0.514,0.958,0.669,0.335,0.566,0.538,-,CALM,�L
2022/10/07,18:10,0.550,0.774,0.513,0.958,0.667,0.337,0.564,0.539,-,CALM,�L
2022/10/07,18:20,0.552,0.776,0.515,0.958,0.667,0.336,0.565,0.540,�k�k��,5.7,�L
2022/10/07,18:30,0.555,0.777,0.517,0.967,0.667,0.339,0.566,0.540,�k�k��,6.8,�L
2022/10/07,18:40,0.557,0.779,0.521,0.966,0.668,0.340,0.566,0.539,�k,7.2,�L
2022/10/07,18:50,0.558,0.781,0.519,0.970,0.668,0.338,0.567,0.541,�k�k��,6.5,�L
2022/10/07,19:00,0.559,0.782,0.520,0.973,0.670,0.340,0.568,0.544,�k�k��,7.5,�L
2022/10/07,19:10,0.559,0.782,0.520,0.974,0.671,0.340,0.565,0.543,�k�k��,5.9,�L
2022/10/07,19:20,0.559,0.783,0.518,0.974,0.671,0.338,0.565,0.543,�k�k��,8.3,�L
2022/10/07,19:30,0.558,0.783,0.517,0.978,0.669,0.340,0.565,0.544,�k�k��,8.6,�L
2022/10/07,19:40,0.557,0.783,0.517,0.973,0.670,0.338,0.567,0.545,�k��,10.9,�L
2022/10/07,19:50,0.557,0.786,0.516,0.975,0.670,0.338,0.565,0.543,�k��,11.6,�L
2022/10/07,20:00,0.558,0.785,0.518,0.975,0.669,0.338,0.566,0.543,�k��,10.8,�L
2022/10/07,20:10,0.556,0.785,0.515,0.975,0.668,0.337,0.566,0.543,�k��,10.5,�L
2022/10/07,20:20,0.557,0.784,0.515,0.977,0.669,0.336,0.568,0.544,�k��,11.3,�L
2022/10/07,20:30,0.556,0.782,0.515,0.977,0.668,0.335,0.567,0.542,�k��,10.8,�L
2022/10/07,20:40,0.554,0.783,0.515,0.978,0.669,0.334,0.566,0.542,�k��,11.9,�L
2022/10/07,20:50,0.556,0.785,0.515,0.977,0.668,0.336,0.567,0.543,�k��,11.1,�L
2022/10/07,21:00,0.557,0.783,0.517,0.978,0.669,0.336,0.567,0.543,�k��,10.9,�L
2022/10/07,21:10,0.557,0.787,0.514,0.979,0.668,0.337,0.569,0.545,�k��,9.2,�L
2022/10/07,21:20,0.557,0.784,0.516,0.980,0.668,0.337,0.570,0.545,�k��,11.3,�L
2022/10/07,21:30,0.558,0.787,0.518,0.979,0.668,0.337,0.570,0.544,�k��,10.2,�L
2022/10/07,21:40,0.556,0.789,0.516,0.981,0.668,0.336,0.568,0.543,�k��,10.3,�L
2022/10/07,21:50,0.555,0.786,0.514,0.982,0.669,0.335,0.569,0.544,�k��,11.3,�L
2022/10/07,22:00,0.556,0.785,0.514,0.981,0.672,0.336,0.569,0.543,�k��,11.3,�L
2022/10/07,22:10,0.556,0.787,0.515,0.981,0.670,0.336,0.569,0.543,�k�k��,10.4,�L
2022/10/07,22:20,0.557,0.785,0.513,0.981,0.669,0.334,0.568,0.543,�k�k��,9.9,�L
2022/10/07,22:30,0.554,0.785,0.513,0.981,0.668,0.333,0.568,0.542,�k�k��,9.8,�L
2022/10/07,22:40,0.554,0.784,0.511,0.981,0.667,0.334,0.568,0.542,�k�k��,10.3,�L
2022/10/07,22:50,0.553,0.783,0.512,0.983,0.669,0.333,0.567,0.542,�k�k��,9.1,�L
2022/10/07,23:00,0.552,0.783,0.511,0.981,0.667,0.333,0.568,0.541,�k�k��,9.4,�L
2022/10/07,23:10,0.552,0.781,0.510,0.980,0.665,0.334,0.567,0.541,�k,6.3,�L
2022/10/07,23:20,0.550,0.776,0.510,0.974,0.662,0.332,0.566,0.539,�k,7.0,�L
2022/10/07,23:30,0.546,0.772,0.509,0.969,0.657,0.333,0.563,0.539,�k,5.7,�L
2022/10/07,23:40,0.545,0.773,0.508,0.968,0.659,0.332,0.565,0.539,�k�k��,5.0,�L
2022/10/07,23:50,0.544,0.772,0.508,0.968,0.656,0.333,0.563,0.539,�k�k��,7.1,�L
